This demonstration page uses our WeatherBlox Daily Observations layout. Learn more.

Left ArrowRight Arrow

Hourly Observations for June 24, 2015

Temp ( °F °C ) Dew Point ( °F °C ) Humidity (%) Winds ( mph kmh ) Pressure ( in mb ) Visibility ( mi km ) Precip ( " mm )
12:54 am 00:54 Mostly Clear 68 20 59 15 73 73 ESE 9 15 30.05 1018 10 16.0934 N/A
1:54 am 01:54 Clear 68 20 60 15.6 76 76 ESE 7 11 30.03 1017 10 16.0934 N/A
2:54 am 02:54 Partly Cloudy 68 20 60 15.6 76 76 SE 13 20 30 1016 10 16.0934 N/A
3:54 am 03:54 Mostly Cloudy 68 20 61 16.1 78 78 N 12 19 30.04 1017 10 16.0934 N/A
4:12 am 04:12 Cloudy 66 19 61 16 83 83 NE 15 24 30 1016 10 16.0934 N/A
4:33 am 04:33 Partly Cloudy 67 19.4 61 16.1 81 81 E 12 19 29.97 1015 10 16.0934 N/A
4:54 am 04:54 Mostly Clear 67 19.4 61 16.1 81 81 ESE 15 24 29.97 1015 10 16.0934 N/A
5:05 am 05:05 Partly Cloudy with Nearby Thunderstorms 68 20 61 16.1 78 78 E 9 15 29.97 1015 10 16.0934 N/A
5:24 am 05:24 Mostly Cloudy with Thunderstorms 68 20 63 17 83 83 E 13 20 29.97 1015 10 16.0934 N/A
5:54 am 05:54 Mostly Clear with Thunderstorms 68 20 61 16.1 78 78 E 15 24 29.96 1015 10 16.0934 N/A
6:16 am 06:16 Mostly Sunny 68 20 63 17 83 83 E 21 33 29.94 1014 10 16.0934 N/A
6:54 am 06:54 Sunny 68 20 62 16.7 81 81 ESE 12 19 29.97 1015 10 16.0934 N/A
7:54 am 07:54 Mostly Sunny 69 20.6 63 17.2 81 81 ESE 10 17 29.98 1015 10 16.0934 N/A
8:54 am 08:54 Partly Cloudy with Nearby Thunderstorms 71 21.7 65 18.3 81 81 SE 12 19 29.97 1015 10 16.0934 N/A
9:11 am 09:11 Mostly Sunny 71 21.7 65 18.3 81 81 SSE 10 17 29.97 1015 10 16.0934 N/A
9:54 am 09:54 Sunny 72 22.2 66 18.9 82 82 SSE 13 20 29.96 1015 10 16.0934 N/A
10:54 am 10:54 Mostly Cloudy 75 23.9 68 20 79 79 S 6 9 29.96 1014 10 16.0934 N/A
11:10 am 11:10 Cloudy with Nearby Thunderstorms 75 24 70 21 83 83 N N/A 29.94 1014 10 16.0934 N/A
11:24 am 11:24 Cloudy with Thunderstorms 75 24 68 20 78 78 WNW 5 7 29.94 1014 10 16.0934 N/A
11:54 am 11:54 Cloudy with Nearby Thunderstorms 75 23.9 69 20.6 82 82 N 10 17 29.99 1016 10 16.0934 N/A
12:17 pm 12:17 Partly Cloudy 79 26.1 68 20 69 69 N 12 19 29.97 1015 10 16.0934 N/A
12:54 pm 12:54 Sunny 81 27.2 70 21.1 69 69 NNE 14 22 29.97 1015 10 16.0934 N/A
1:54 pm 13:54 Sunny 83 28.3 70 21.1 65 65 E 9 15 29.92 1013 10 16.0934 N/A
2:54 pm 14:54 Sunny 88 31.1 73 22.8 61 61 SE 9 15 29.89 1012 10 16.0934 N/A
3:54 pm 15:54 Sunny 91 32.8 74 23.3 57 57 SE 9 15 29.88 1012 10 16.0934 N/A
4:54 pm 16:54 Sunny 95 35 71 21.7 46 46 S 15 24 29.84 1010 10 16.0934 N/A
5:54 pm 17:54 Sunny 95 35 68 20 41 41 S 17 28 29.82 1010 10 16.0934 N/A
6:54 pm 18:54 Sunny 93 33.9 68 20 44 44 S 13 20 29.81 1010 10 16.0934 N/A
7:54 pm 19:54 Sunny 90 32.2 70 21.1 52 52 SSW 7 11 29.8 1009 10 16.0934 N/A
8:54 pm 20:54 Sunny 84 28.9 75 23.9 74 74 N 13 20 29.81 1010 10 16.0934 N/A
9:54 pm 21:54 Clear 79 26.1 74 23.3 85 85 NNE 9 15 29.84 1011 9 14.48406 N/A
10:54 pm 22:54 Clear 77 25 72 22.2 85 85 NNE 8 13 29.87 1012 10 16.0934 N/A
11:54 pm 23:54 Clear 75 23.9 72 22.2 90 90 N 10 17 29.87 1012 9 14.48406 N/A

Powered by AerisWeather